Location: Ballingbuur
(53.0000°N, 5.7667°E)
Time: 06:44:32
(UTC+00:00)

Cosmos 1295 Rocket - Pass Details

Date: 29 November 2020
Orbit: 945 x 993 km, 82.9° (Epoch: 23 January)

Event Time Altitude Azimuth Distance (km) Brightness Sun altitude
Rises 05:41:39 0° 187° (S) 3,604 7.6 -14.7°
Reaches altitude 10° 05:44:07 10° 187° (S) 2,661 6.9 -14.3°
Maximum altitude 05:50:12 88° 101° (E) 954 4.5 -13.5°
Drops below altitude 10° 05:56:21 10° 11° (N) 2,684 6.7 -12.6°
Sets 05:58:51 0° 11° (NNE) 3,637 7.4 -12.2°
